[[{"header":{"parameterUnit":"m.s-1","parameterCategory":1,"la1":30.2991,"la2":30.254,"lo1":-89.0895,"lo2":-89.0444,"dy":0.0017,"dx":0.0017,"nx":28,"ny":28,"refTime":"2023-08-22T09:00:00:Z","depth":0,"parameterNumber":2,"parameterNumberName":"U-component_of_WINDS"},"data":[0,0,0,0,0,0,0,0,0,0,0,0,0,0,0,0,0,0,0,0,0,0,0,0,0,0,0,0,0,0,0,0,0,0,0,0,0,0,0,0,0,0,0,0,0,0,0,0,0,0,0,0,0,0,0,0,0,0,-0.4208,-0.4207,0,-0.41,-0.4099,-0.4098,-0.4075,-0.4076,-0.4077,-0.4078,-0.3964,-0.396,-0.3957,0,0,0,0,0,0,0,0,0,0,0,0,0,-0.4392,-0.4389,-0.4208,-0.4207,-0.4205,-0.41,-0.4099,-0.4097,-0.4075,-0.4076,-0.4077,-0.4078,-0.3965,-0.3961,-0.3956,0,0,0,0,0,0,0,0,0,0,0,0,0,-0.4301,-0.4388,-0.4208,-0.4182,-0.4178,-0.4101,-0.4099,-0.4097,-0.4075,-0.4076,-0.4077,-0.4079,-0.3967,-0.3961,-0.3956,-0.3896,0,0,-0.3938,-0.3936,0,0,0,0,0,0,0,0,-0.4306,-0.4294,-0.4187,-0.4183,-0.4179,-0.4102,-0.4122,-0.4029,-0.4075,-0.4114,-0.4078,-0.4079,-0.4009,-0.4,-0.3977,-0.3891,-0.3886,-0.3938,-0.3934,-0.3932,-0.393,0,0,0,0,0,0,0,-0.4312,-0.4299,-0.4165,-0.4185,-0.4181,-0.4174,-0.4163,-0.4104,-0.4056,-0.4111,-0.4109,-0.4097,-0.4007,-0.3982,-0.3974,-0.3884,-0.3938,-0.3933,-0.393,-0.3927,-0.3744,-0.3743,0,0,0,0,0,0,-0.4324,-0.4304,-0.4169,-0.4162,-0.4247,-0.417,-0.4157,-0.4126,-0.4056,-0.4047,-0.4096,-0.4096,-0.3992,-0.3981,-0.397,-0.3895,-0.3932,-0.3927,-0.3923,-0.3745,-0.3744,-0.3742,0,0,0,0,0,0,-0.4328,-0.4312,-0.4173,-0.4232,-0.4214,-0.4166,-0.4131,-0.4123,-0.4098,-0.4045,-0.4036,-0.4079,-0.3992,-0.3978,-0.3915,-0.3891,-0.3924,-0.3919,-0.3747,-0.3745,-0.3743,-0.3746,0,0,0,0,0,0,-0.4333,-0.4314,-0.4291,-0.4232,-0.4211,-0.412,-0.4129,-0.412,-0.4089,-0.4088,-0.4027,-0.4019,-0.3992,-0.3924,-0.3909,-0.3884,-0.3915,-0.3749,-0.3746,-0.3744,-0.3748,-0.3744,-0.3741,0,0,0,0,0,-0.434,-0.4295,-0.429,-0.4274,-0.4182,-0.4119,-0.4107,-0.4078,-0.4087,-0.4064,-0.403,-0.402,-0.3897,-0.3917,-0.3901,-0.3874,-0.375,-0.3747,-0.3744,-0.3749,-0.3745,-0.3741,0,0,0,0,0,0,-0.4351,-0.4287,-0.428,-0.4216,-0.4173,-0.4115,-0.4085,-0.4074,-0.4027,-0.4029,-0.3994,-0.3981,-0.392,-0.389,-0.3915,-0.3812,-0.3824,-0.3817,-0.3834,-0.3829,-0.3826,-0.3834,-0.391,0,0,0,0,0,-0.4346,-0.4301,-0.4248,-0.4196,-0.4175,-0.4134,-0.4105,-0.4087,-0.4041,-0.4022,-0.3984,-0.3939,-0.389,-0.3858,-0.381,-0.3744,-0.373,-0.3717,-0.3714,-0.3712,-0.3706,-0.3669,-0.3663,-0.3731,-0.3731,-0.3731,0,0,-0.4335,-0.4295,-0.4268,-0.4197,-0.4162,-0.4115,-0.4118,-0.4069,-0.4034,-0.4014,-0.3953,-0.3923,-0.387,-0.3806,-0.3776,-0.378,-0.3684,-0.3707,-0.3706,-0.3701,-0.3665,-0.3659,-0.3653,-0.3729,-0.3729,-0.373,0,0,-0.4291,-0.4257,-0.4209,-0.4175,-0.4122,-0.4095,-0.4084,-0.4028,-0.4008,-0.3946,-0.393,-0.3888,-0.3804,-0.3768,-0.3738,-0.3682,-0.3672,-0.3667,-0.3649,-0.3614,-0.3608,-0.3604,-0.3583,-0.3576,-0.3662,-0.3662,-0.3662,0,-0.4284,-0.4214,-0.4186,-0.4138,-0.4107,-0.4089,-0.404,-0.4008,-0.3942,-0.392,-0.3926,-0.3821,-0.3785,-0.3711,-0.3698,-0.3675,-0.366,-0.3673,-0.3612,-0.3606,-0.3601,-0.3582,-0.3574,-0.3662,-0.3662,-0.3662,-0.3662,0,-0.4207,-0.4159,-0.4128,-0.4066,-0.4031,-0.3983,-0.3947,-0.3915,-0.3901,-0.3873,-0.381,-0.3766,-0.3709,-0.369,-0.3674,-0.3615,-0.3619,-0.3619,-0.3629,-0.3595,-0.3576,-0.3568,-0.3661,-0.3661,-0.3661,-0.3661,0,0,-0.4166,-0.4091,-0.4079,-0.4051,-0.3992,-0.3954,-0.3905,-0.3851,-0.3824,-0.3779,-0.3737,-0.3667,-0.3667,-0.3634,-0.3614,-0.3583,-0.3542,-0.3587,-0.3585,-0.358,-0.3473,-0.3473,-0.3465,-0.3535,-0.3534,-0.3532,-0.3477,0,-0.4114,-0.4028,-0.4002,-0.3928,-0.3883,-0.3866,-0.3824,-0.3783,-0.3756,-0.3713,-0.3683,-0.3635,-0.3638,-0.3618,-0.3587,-0.3553,-0.352,-0.3557,-0.3495,-0.3493,-0.3508,-0.3455,-0.3454,-0.3404,-0.347,-0.3468,-0.3467,0,-0.4042,-0.3998,-0.3921,-0.3868,-0.3849,-0.3811,-0.3759,-0.3719,-0.3672,-0.3655,-0.3618,-0.3602,-0.355,-0.3564,-0.3492,-0.3518,-0.3491,-0.3471,-0.3468,-0.346,-0.3477,-0.3445,-0.3387,-0.338,-0.3455,-0.3456,-0.3457,0,-0.4019,-0.394,-0.3884,-0.386,-0.3798,-0.3772,-0.3745,-0.3699,-0.3668,-0.3623,-0.3602,-0.3551,-0.3523,-0.3484,-0.3453,-0.3467,-0.3384,-0.3395,-0.3367,-0.3368,-0.3349,-0.3351,-0.3286,-0.3333,-0.3333,-0.3334,-0.3334,0,-0.3964,-0.3917,-0.3873,-0.3838,-0.3785,-0.3756,-0.3704,-0.3676,-0.3636,-0.3595,-0.3577,-0.3538,-0.3501,-0.3458,-0.3434,-0.3378,-0.3365,-0.3349,-0.3343,-0.335,-0.3352,-0.3332,-0.3334,-0.3332,-0.3332,-0.3332,-0.3333,0,-0.3929,-0.3897,-0.3835,-0.3782,-0.3767,-0.373,-0.3685,-0.365,-0.3623,-0.3572,-0.3558,-0.3515,-0.3464,-0.343,-0.3364,-0.3348,-0.3286,-0.3281,-0.3302,-0.3299,-0.3273,-0.3275,-0.3192,-0.3179,-0.3236,-0.3235,-0.3235,0,-0.3895,-0.3859,-0.3803,-0.3775,-0.3747,-0.3702,-0.3671,-0.3641,-0.3609,-0.3554,-0.3526,-0.3473,-0.343,-0.3348,-0.331,-0.326,-0.3253,-0.3228,-0.3245,-0.3254,-0.3253,-0.3255,-0.3251,-0.3224,-0.3224,-0.3224,-0.3223,0,-0.3839,-0.3825,-0.3782,-0.3733,-0.3696,-0.3656,-0.3615,-0.3593,-0.3556,-0.3521,-0.3469,-0.3435,-0.3368,-0.3316,-0.3262,-0.3234,-0.3222,-0.3218,-0.3209,-0.3215,-0.3229,-0.3221,-0.3294,-0.322,-0.322,-0.3221,-0.3221,-0.3221,-0.3803,-0.377,-0.3726,-0.3678,-0.3644,-0.3607,-0.3572,-0.3542,-0.3498,-0.3442,-0.3427,-0.3372,-0.3327,-0.3254,-0.3225,-0.3181,-0.3184,-0.317,-0.3167,-0.3164,-0.3164,-0.3237,-0.3171,-0.3171,-0.3171,-0.3171,-0.3171,0,-0.3745,-0.3716,-0.3673,-0.3617,-0.3579,-0.3574,-0.3529,-0.3497,-0.345,-0.3409,-0.3367,-0.3307,-0.3257,-0.3217,-0.3165,-0.3138,-0.3131,-0.3125,-0.3126,-0.312,-0.3164,-0.3177,-0.3131,-0.3131,-0.3131,-0.3131,-0.3131,-0.3131,-0.3711,-0.3655,-0.3637,-0.3564,-0.3535,-0.3483,-0.3457,-0.3423,-0.3391,-0.3325,-0.3284,-0.3258,-0.3218,-0.3163,-0.3117,-0.3106,-0.3088,-0.3083,-0.3071,-0.3112,-0.3117,-0.3121,-0.3133,-0.3079,-0.3079,-0.303,-0.303,-0.303]},{"header":{"parameterUnit":"m.s-1","parameterCategory":1,"la1":30.2991,"la2":30.254,"lo1":-89.0895,"lo2":-89.0444,"dy":0.0017,"dx":0.0017,"nx":28,"ny":28,"refTime":"2023-08-22T09:00:00:Z","depth":0,"parameterNumber":3,"parameterNumberName":"V-component_of_WINDS"},"data":[0,0,0,0,0,0,0,0,0,0,0,0,0,0,0,0,0,0,0,0,0,0,0,0,0,0,0,0,0,0,0,0,0,0,0,0,0,0,0,0,0,0,0,0,0,0,0,0,0,0,0,0,0,0,0,0,0,0,0.4859,0.4859,0,0.485,0.485,0.4849,0.4825,0.4825,0.4824,0.4824,0.4812,0.4813,0.4813,0,0,0,0,0,0,0,0,0,0,0,0,0,0.4852,0.4853,0.4859,0.4859,0.4859,0.485,0.485,0.4849,0.4825,0.4825,0.4824,0.4823,0.4812,0.4812,0.4813,0,0,0,0,0,0,0,0,0,0,0,0,0,0.485,0.4853,0.4859,0.4846,0.4844,0.485,0.485,0.4849,0.4825,0.4825,0.4824,0.4823,0.4812,0.4812,0.4813,0.483,0,0,0.4814,0.4814,0,0,0,0,0,0,0,0,0.485,0.4851,0.4848,0.4847,0.4845,0.4838,0.4843,0.4843,0.4826,0.4833,0.4824,0.4823,0.4821,0.4821,0.4821,0.4829,0.4829,0.4814,0.4814,0.4814,0.4814,0,0,0,0,0,0,0,0.4851,0.4851,0.4855,0.4848,0.4846,0.4839,0.4838,0.4843,0.4831,0.4832,0.483,0.4829,0.482,0.482,0.482,0.4829,0.4814,0.4814,0.4814,0.4814,0.4846,0.4847,0,0,0,0,0,0,0.4853,0.4851,0.4856,0.4855,0.4846,0.484,0.4838,0.4841,0.4831,0.4829,0.483,0.4828,0.482,0.482,0.482,0.4836,0.4814,0.4814,0.4814,0.4845,0.4846,0.4847,0,0,0,0,0,0,0.4853,0.4854,0.4856,0.4853,0.4852,0.4841,0.4844,0.4841,0.4841,0.483,0.4827,0.4832,0.482,0.4819,0.4827,0.4835,0.4814,0.4814,0.4845,0.4846,0.4847,0.4871,0,0,0,0,0,0,0.4853,0.4854,0.4861,0.4853,0.4853,0.4864,0.4844,0.4842,0.4842,0.484,0.4831,0.4829,0.4819,0.4826,0.4827,0.4835,0.4815,0.4844,0.4845,0.4846,0.4869,0.4873,0.4875,0,0,0,0,0,0.4853,0.4869,0.4862,0.4863,0.4862,0.4865,0.4865,0.4853,0.4843,0.4849,0.4841,0.483,0.4835,0.4827,0.4828,0.4836,0.4843,0.4845,0.4846,0.4868,0.4872,0.4875,0,0,0,0,0,0,0.4879,0.4868,0.486,0.4874,0.4871,0.4861,0.4869,0.4858,0.4858,0.4855,0.484,0.4839,0.4847,0.4843,0.4835,0.485,0.4837,0.4838,0.4853,0.4857,0.486,0.486,0.4815,0,0,0,0,0,0.4887,0.4891,0.4881,0.4894,0.4893,0.4881,0.4882,0.4873,0.4869,0.4867,0.486,0.4856,0.4855,0.4856,0.4856,0.4869,0.4865,0.4874,0.4878,0.488,0.4881,0.4884,0.4888,0.4852,0.4852,0.4852,0,0,0.4902,0.4896,0.49,0.4899,0.4895,0.4898,0.488,0.4885,0.4887,0.4868,0.4873,0.4868,0.4862,0.4871,0.4874,0.4867,0.489,0.4882,0.4884,0.4884,0.4886,0.489,0.4893,0.4853,0.4853,0.4853,0,0,0.4931,0.4929,0.4938,0.4934,0.4928,0.492,0.4922,0.4914,0.4909,0.4915,0.4899,0.49,0.4902,0.4897,0.4895,0.4919,0.4907,0.4919,0.4935,0.4938,0.4941,0.4943,0.4949,0.4952,0.4921,0.4921,0.4921,0,0.4951,0.4956,0.4944,0.4949,0.4947,0.493,0.4938,0.4935,0.4929,0.4928,0.492,0.4919,0.4914,0.492,0.4926,0.4925,0.4925,0.492,0.4942,0.4944,0.4946,0.4951,0.4954,0.4922,0.4922,0.4922,0.4922,0,0.4979,0.4982,0.499,0.4985,0.4984,0.4991,0.4978,0.4979,0.4969,0.4961,0.4965,0.4958,0.4954,0.4955,0.4947,0.4959,0.4955,0.4945,0.493,0.4951,0.4955,0.4958,0.4924,0.4924,0.4923,0.4923,0,0,0.5025,0.5011,0.5014,0.5009,0.5001,0.5002,0.5007,0.5003,0.5003,0.4999,0.5001,0.5001,0.4991,0.4988,0.4979,0.4981,0.4997,0.4971,0.497,0.4974,0.5007,0.5013,0.5016,0.499,0.499,0.499,0.5007,0,0.505,0.5058,0.5045,0.5055,0.5056,0.5038,0.5042,0.5036,0.5028,0.5027,0.5018,0.5017,0.5005,0.5003,0.5005,0.4995,0.5003,0.4994,0.4989,0.4989,0.499,0.5019,0.5026,0.5042,0.5009,0.5009,0.5009,0,0.5081,0.5077,0.5087,0.5075,0.5075,0.5078,0.5072,0.5072,0.5064,0.5058,0.5053,0.5042,0.5043,0.503,0.503,0.5024,0.5021,0.5015,0.5016,0.5014,0.4999,0.5016,0.5048,0.5049,0.5013,0.5012,0.5012,0,0.511,0.5108,0.5112,0.511,0.5096,0.5099,0.5093,0.5084,0.5082,0.5076,0.5074,0.5069,0.5066,0.5062,0.5048,0.504,0.5048,0.5035,0.5041,0.5042,0.5043,0.5043,0.5073,0.5044,0.5044,0.5044,0.5044,0,0.5138,0.5144,0.5125,0.5127,0.5132,0.5118,0.5123,0.5115,0.5107,0.5106,0.5091,0.5091,0.5074,0.5071,0.506,0.506,0.5059,0.5053,0.5049,0.5053,0.5054,0.505,0.5048,0.5045,0.5045,0.5045,0.5045,0,0.5171,0.5159,0.5162,0.5149,0.5145,0.5149,0.5137,0.5138,0.5128,0.5128,0.5126,0.5111,0.5107,0.5093,0.5085,0.5078,0.508,0.5075,0.5083,0.5081,0.5087,0.5086,0.5114,0.5116,0.5088,0.5089,0.5089,0,0.5189,0.5192,0.5179,0.5177,0.5172,0.5171,0.5168,0.5153,0.515,0.5139,0.5141,0.5135,0.513,0.5123,0.511,0.5104,0.5097,0.5108,0.5096,0.5099,0.5095,0.5094,0.5093,0.511,0.511,0.5111,0.5111,0,0.522,0.5214,0.521,0.5204,0.5201,0.5196,0.5189,0.5189,0.5172,0.5169,0.5164,0.516,0.5151,0.5145,0.5136,0.5128,0.5116,0.5115,0.5115,0.5118,0.5122,0.5118,0.5088,0.5114,0.5114,0.5113,0.5113,0.5113,0.5244,0.5246,0.5236,0.5232,0.5225,0.5219,0.5218,0.5208,0.5204,0.5196,0.5187,0.5183,0.5172,0.5158,0.5151,0.5147,0.514,0.5142,0.5142,0.5142,0.5143,0.5124,0.5145,0.5145,0.5145,0.5145,0.5145,0,0.5273,0.5266,0.5262,0.5253,0.5249,0.5239,0.523,0.5228,0.5224,0.5215,0.521,0.5203,0.5196,0.5182,0.5174,0.5172,0.5166,0.5171,0.517,0.5168,0.515,0.515,0.5175,0.5175,0.5175,0.5175,0.5175,0.5175,0.5288,0.5288,0.528,0.5277,0.5269,0.5264,0.526,0.5254,0.5246,0.5239,0.5234,0.5225,0.5213,0.5204,0.5196,0.5192,0.5189,0.5195,0.5189,0.5172,0.5169,0.5167,0.5166,0.5194,0.5195,0.5206,0.5206,0.5206]}]]